Index of /20260424/WXO-DD/model_gdps/15km/12/033
Name Last modified Size Description
Parent Directory -
20260424T12Z_MSC_GDPS_AbsoluteVorticity_IsbL-0200_LatLon0.15_PT033H.grib2 2026-04-24 16:02 1.2M
20260424T12Z_MSC_GDPS_AbsoluteVorticity_IsbL-0250_LatLon0.15_PT033H.grib2 2026-04-24 16:02 1.3M
20260424T12Z_MSC_GDPS_AbsoluteVorticity_IsbL-0500_LatLon0.15_PT033H.grib2 2026-04-24 16:02 1.5M
20260424T12Z_MSC_GDPS_AbsoluteVorticity_IsbL-0700_LatLon0.15_PT033H.grib2 2026-04-24 16:02 1.6M
20260424T12Z_MSC_GDPS_AbsoluteVorticity_IsbL-0850_LatLon0.15_PT033H.grib2 2026-04-24 16:02 1.6M
20260424T12Z_MSC_GDPS_AirTemp_AGL-120m_LatLon0.15_PT033H.grib2 2026-04-24 16:02 915K
20260424T12Z_MSC_GDPS_AirTemp_AGL-2m_LatLon0.15_PT033H.grib2 2026-04-24 16:02 1.0M
20260424T12Z_MSC_GDPS_AirTemp_AGL-40m_LatLon0.15_PT033H.grib2 2026-04-24 16:02 825K
20260424T12Z_MSC_GDPS_AirTemp_AGL-80m_LatLon0.15_PT033H.grib2 2026-04-24 16:02 928K
20260424T12Z_MSC_GDPS_AirTemp_IsbL-0001_LatLon0.15_PT033H.grib2 2026-04-24 16:02 709K
20260424T12Z_MSC_GDPS_AirTemp_IsbL-0005_LatLon0.15_PT033H.grib2 2026-04-24 16:02 755K
20260424T12Z_MSC_GDPS_AirTemp_IsbL-0010_LatLon0.15_PT033H.grib2 2026-04-24 16:02 767K
20260424T12Z_MSC_GDPS_AirTemp_IsbL-0020_LatLon0.15_PT033H.grib2 2026-04-24 16:02 704K
20260424T12Z_MSC_GDPS_AirTemp_IsbL-0030_LatLon0.15_PT033H.grib2 2026-04-24 16:02 756K
20260424T12Z_MSC_GDPS_AirTemp_IsbL-0050_LatLon0.15_PT033H.grib2 2026-04-24 16:02 814K
20260424T12Z_MSC_GDPS_AirTemp_IsbL-0100_LatLon0.15_PT033H.grib2 2026-04-24 16:02 949K
20260424T12Z_MSC_GDPS_AirTemp_IsbL-0150_LatLon0.15_PT033H.grib2 2026-04-24 16:02 968K
20260424T12Z_MSC_GDPS_AirTemp_IsbL-0175_LatLon0.15_PT033H.grib2 2026-04-24 16:02 958K
20260424T12Z_MSC_GDPS_AirTemp_IsbL-0200_LatLon0.15_PT033H.grib2 2026-04-24 16:02 968K
20260424T12Z_MSC_GDPS_AirTemp_IsbL-0225_LatLon0.15_PT033H.grib2 2026-04-24 16:02 1.0M
20260424T12Z_MSC_GDPS_AirTemp_IsbL-0250_LatLon0.15_PT033H.grib2 2026-04-24 16:02 1.0M
20260424T12Z_MSC_GDPS_AirTemp_IsbL-0275_LatLon0.15_PT033H.grib2 2026-04-24 16:02 1.0M
20260424T12Z_MSC_GDPS_AirTemp_IsbL-0300_LatLon0.15_PT033H.grib2 2026-04-24 16:02 1.0M
20260424T12Z_MSC_GDPS_AirTemp_IsbL-0350_LatLon0.15_PT033H.grib2 2026-04-24 16:02 933K
20260424T12Z_MSC_GDPS_AirTemp_IsbL-0400_LatLon0.15_PT033H.grib2 2026-04-24 16:02 942K
20260424T12Z_MSC_GDPS_AirTemp_IsbL-0450_LatLon0.15_PT033H.grib2 2026-04-24 16:02 745K
20260424T12Z_MSC_GDPS_AirTemp_IsbL-0500_LatLon0.15_PT033H.grib2 2026-04-24 16:02 771K
20260424T12Z_MSC_GDPS_AirTemp_IsbL-0550_LatLon0.15_PT033H.grib2 2026-04-24 16:02 810K
20260424T12Z_MSC_GDPS_AirTemp_IsbL-0600_LatLon0.15_PT033H.grib2 2026-04-24 16:02 896K
20260424T12Z_MSC_GDPS_AirTemp_IsbL-0650_LatLon0.15_PT033H.grib2 2026-04-24 16:02 919K
20260424T12Z_MSC_GDPS_AirTemp_IsbL-0700_LatLon0.15_PT033H.grib2 2026-04-24 16:02 953K
20260424T12Z_MSC_GDPS_AirTemp_IsbL-0750_LatLon0.15_PT033H.grib2 2026-04-24 16:02 1.0M
20260424T12Z_MSC_GDPS_AirTemp_IsbL-0800_LatLon0.15_PT033H.grib2 2026-04-24 16:02 1.1M
20260424T12Z_MSC_GDPS_AirTemp_IsbL-0850_LatLon0.15_PT033H.grib2 2026-04-24 16:02 1.1M
20260424T12Z_MSC_GDPS_AirTemp_IsbL-0875_LatLon0.15_PT033H.grib2 2026-04-24 16:02 1.1M
20260424T12Z_MSC_GDPS_AirTemp_IsbL-0900_LatLon0.15_PT033H.grib2 2026-04-24 16:02 1.1M
20260424T12Z_MSC_GDPS_AirTemp_IsbL-0925_LatLon0.15_PT033H.grib2 2026-04-24 16:02 1.1M
20260424T12Z_MSC_GDPS_AirTemp_IsbL-0950_LatLon0.15_PT033H.grib2 2026-04-24 16:02 1.2M
20260424T12Z_MSC_GDPS_AirTemp_IsbL-0970_LatLon0.15_PT033H.grib2 2026-04-24 16:02 1.2M
20260424T12Z_MSC_GDPS_AirTemp_IsbL-0985_LatLon0.15_PT033H.grib2 2026-04-24 16:02 1.2M
20260424T12Z_MSC_GDPS_AirTemp_IsbL-1000_LatLon0.15_PT033H.grib2 2026-04-24 16:02 1.1M
20260424T12Z_MSC_GDPS_AirTemp_IsbL-1015_LatLon0.15_PT033H.grib2 2026-04-24 16:02 1.1M
20260424T12Z_MSC_GDPS_Albedo_Sfc_LatLon0.15_PT033H.grib2 2026-04-24 16:02 245K
20260424T12Z_MSC_GDPS_CAPE_Sfc_LatLon0.15_PT033H.grib2 2026-04-24 16:02 3.9M
20260424T12Z_MSC_GDPS_CIN_Sfc_LatLon0.15_PT033H.grib2 2026-04-24 16:02 2.8M
20260424T12Z_MSC_GDPS_CloudWater_EAtm_LatLon0.15_PT033H.grib2 2026-04-24 16:02 535K
20260424T12Z_MSC_GDPS_ConvectivePrecip-Accum_Sfc_LatLon0.15_PT033H.grib2 2026-04-24 16:02 2.6M
20260424T12Z_MSC_GDPS_DewPointDepression_AGL-2m_LatLon0.15_PT033H.grib2 2026-04-24 16:02 759K
20260424T12Z_MSC_GDPS_DewPointDepression_IsbL-0010_LatLon0.15_PT033H.grib2 2026-04-24 16:02 55K
20260424T12Z_MSC_GDPS_DewPointDepression_IsbL-0020_LatLon0.15_PT033H.grib2 2026-04-24 16:02 75K
20260424T12Z_MSC_GDPS_DewPointDepression_IsbL-0030_LatLon0.15_PT033H.grib2 2026-04-24 16:02 81K
20260424T12Z_MSC_GDPS_DewPointDepression_IsbL-0050_LatLon0.15_PT033H.grib2 2026-04-24 16:02 366K
20260424T12Z_MSC_GDPS_DewPointDepression_IsbL-0100_LatLon0.15_PT033H.grib2 2026-04-24 16:02 398K
20260424T12Z_MSC_GDPS_DewPointDepression_IsbL-0150_LatLon0.15_PT033H.grib2 2026-04-24 16:02 472K
20260424T12Z_MSC_GDPS_DewPointDepression_IsbL-0175_LatLon0.15_PT033H.grib2 2026-04-24 16:02 558K
20260424T12Z_MSC_GDPS_DewPointDepression_IsbL-0200_LatLon0.15_PT033H.grib2 2026-04-24 16:02 648K
20260424T12Z_MSC_GDPS_DewPointDepression_IsbL-0225_LatLon0.15_PT033H.grib2 2026-04-24 16:02 759K
20260424T12Z_MSC_GDPS_DewPointDepression_IsbL-0250_LatLon0.15_PT033H.grib2 2026-04-24 16:02 862K
20260424T12Z_MSC_GDPS_DewPointDepression_IsbL-0275_LatLon0.15_PT033H.grib2 2026-04-24 16:02 900K
20260424T12Z_MSC_GDPS_DewPointDepression_IsbL-0300_LatLon0.15_PT033H.grib2 2026-04-24 16:02 949K
20260424T12Z_MSC_GDPS_DewPointDepression_IsbL-0350_LatLon0.15_PT033H.grib2 2026-04-24 16:02 1.0M
20260424T12Z_MSC_GDPS_DewPointDepression_IsbL-0400_LatLon0.15_PT033H.grib2 2026-04-24 16:02 1.0M
20260424T12Z_MSC_GDPS_DewPointDepression_IsbL-0450_LatLon0.15_PT033H.grib2 2026-04-24 16:02 1.0M
20260424T12Z_MSC_GDPS_DewPointDepression_IsbL-0500_LatLon0.15_PT033H.grib2 2026-04-24 16:02 1.0M
20260424T12Z_MSC_GDPS_DewPointDepression_IsbL-0550_LatLon0.15_PT033H.grib2 2026-04-24 16:02 1.0M
20260424T12Z_MSC_GDPS_DewPointDepression_IsbL-0600_LatLon0.15_PT033H.grib2 2026-04-24 16:02 1.1M
20260424T12Z_MSC_GDPS_DewPointDepression_IsbL-0650_LatLon0.15_PT033H.grib2 2026-04-24 16:02 1.1M
20260424T12Z_MSC_GDPS_DewPointDepression_IsbL-0700_LatLon0.15_PT033H.grib2 2026-04-24 16:02 1.1M
20260424T12Z_MSC_GDPS_DewPointDepression_IsbL-0750_LatLon0.15_PT033H.grib2 2026-04-24 16:02 1.1M
20260424T12Z_MSC_GDPS_DewPointDepression_IsbL-0800_LatLon0.15_PT033H.grib2 2026-04-24 16:02 1.2M
20260424T12Z_MSC_GDPS_DewPointDepression_IsbL-0850_LatLon0.15_PT033H.grib2 2026-04-24 16:02 1.1M
20260424T12Z_MSC_GDPS_DewPointDepression_IsbL-0875_LatLon0.15_PT033H.grib2 2026-04-24 16:02 1.1M
20260424T12Z_MSC_GDPS_DewPointDepression_IsbL-0900_LatLon0.15_PT033H.grib2 2026-04-24 16:02 1.1M
20260424T12Z_MSC_GDPS_DewPointDepression_IsbL-0925_LatLon0.15_PT033H.grib2 2026-04-24 16:02 1.0M
20260424T12Z_MSC_GDPS_DewPointDepression_IsbL-0950_LatLon0.15_PT033H.grib2 2026-04-24 16:02 1.0M
20260424T12Z_MSC_GDPS_DewPointDepression_IsbL-0970_LatLon0.15_PT033H.grib2 2026-04-24 16:02 1.0M
20260424T12Z_MSC_GDPS_DewPointDepression_IsbL-0985_LatLon0.15_PT033H.grib2 2026-04-24 16:02 1.0M
20260424T12Z_MSC_GDPS_DewPointDepression_IsbL-1000_LatLon0.15_PT033H.grib2 2026-04-24 16:02 1.0M
20260424T12Z_MSC_GDPS_DewPointDepression_IsbL-1015_LatLon0.15_PT033H.grib2 2026-04-24 16:02 920K
20260424T12Z_MSC_GDPS_DewPoint_AGL-2m_LatLon0.15_PT033H.grib2 2026-04-24 16:02 610K
20260424T12Z_MSC_GDPS_DownwardLongwaveRadiationFlux-Accum_Sfc_LatLon0.15_PT033H.grib2 2026-04-24 16:02 777K
20260424T12Z_MSC_GDPS_DownwardShortwaveRadiationFlux-Accum_NTAtm_LatLon0.15_PT033H.grib2 2026-04-24 16:02 291K
20260424T12Z_MSC_GDPS_DownwardShortwaveRadiationFlux-Accum_Sfc_LatLon0.15_PT033H.grib2 2026-04-24 16:02 938K
20260424T12Z_MSC_GDPS_FreezingRain-Accum1h_Sfc_LatLon0.15_PT033H.grib2 2026-04-24 16:02 57K
20260424T12Z_MSC_GDPS_FreezingRain-Accum3h_Sfc_LatLon0.15_PT033H.grib2 2026-04-24 16:02 51K
20260424T12Z_MSC_GDPS_FreezingRain-Accum_Sfc_LatLon0.15_PT033H.grib2 2026-04-24 16:02 235K
20260424T12Z_MSC_GDPS_GeopotentialHeight_IsbL-0001_LatLon0.15_PT033H.grib2 2026-04-24 16:02 395K
20260424T12Z_MSC_GDPS_GeopotentialHeight_IsbL-0005_LatLon0.15_PT033H.grib2 2026-04-24 16:02 498K
20260424T12Z_MSC_GDPS_GeopotentialHeight_IsbL-0010_LatLon0.15_PT033H.grib2 2026-04-24 16:02 484K
20260424T12Z_MSC_GDPS_GeopotentialHeight_IsbL-0020_LatLon0.15_PT033H.grib2 2026-04-24 16:02 422K
20260424T12Z_MSC_GDPS_GeopotentialHeight_IsbL-0030_LatLon0.15_PT033H.grib2 2026-04-24 16:02 576K
20260424T12Z_MSC_GDPS_GeopotentialHeight_IsbL-0050_LatLon0.15_PT033H.grib2 2026-04-24 16:02 574K
20260424T12Z_MSC_GDPS_GeopotentialHeight_IsbL-0100_LatLon0.15_PT033H.grib2 2026-04-24 16:02 604K
20260424T12Z_MSC_GDPS_GeopotentialHeight_IsbL-0150_LatLon0.15_PT033H.grib2 2026-04-24 16:02 625K
20260424T12Z_MSC_GDPS_GeopotentialHeight_IsbL-0175_LatLon0.15_PT033H.grib2 2026-04-24 16:02 631K
20260424T12Z_MSC_GDPS_GeopotentialHeight_IsbL-0200_LatLon0.15_PT033H.grib2 2026-04-24 16:02 636K
20260424T12Z_MSC_GDPS_GeopotentialHeight_IsbL-0225_LatLon0.15_PT033H.grib2 2026-04-24 16:02 633K
20260424T12Z_MSC_GDPS_GeopotentialHeight_IsbL-0250_LatLon0.15_PT033H.grib2 2026-04-24 16:02 642K
20260424T12Z_MSC_GDPS_GeopotentialHeight_IsbL-0275_LatLon0.15_PT033H.grib2 2026-04-24 16:02 642K
20260424T12Z_MSC_GDPS_GeopotentialHeight_IsbL-0300_LatLon0.15_PT033H.grib2 2026-04-24 16:02 641K
20260424T12Z_MSC_GDPS_GeopotentialHeight_IsbL-0350_LatLon0.15_PT033H.grib2 2026-04-24 16:02 632K
20260424T12Z_MSC_GDPS_GeopotentialHeight_IsbL-0400_LatLon0.15_PT033H.grib2 2026-04-24 16:02 624K
20260424T12Z_MSC_GDPS_GeopotentialHeight_IsbL-0450_LatLon0.15_PT033H.grib2 2026-04-24 16:02 613K
20260424T12Z_MSC_GDPS_GeopotentialHeight_IsbL-0500_LatLon0.15_PT033H.grib2 2026-04-24 16:02 534K
20260424T12Z_MSC_GDPS_GeopotentialHeight_IsbL-0550_LatLon0.15_PT033H.grib2 2026-04-24 16:02 696K
20260424T12Z_MSC_GDPS_GeopotentialHeight_IsbL-0600_LatLon0.15_PT033H.grib2 2026-04-24 16:02 687K
20260424T12Z_MSC_GDPS_GeopotentialHeight_IsbL-0650_LatLon0.15_PT033H.grib2 2026-04-24 16:02 686K
20260424T12Z_MSC_GDPS_GeopotentialHeight_IsbL-0700_LatLon0.15_PT033H.grib2 2026-04-24 16:02 679K
20260424T12Z_MSC_GDPS_GeopotentialHeight_IsbL-0750_LatLon0.15_PT033H.grib2 2026-04-24 16:02 688K
20260424T12Z_MSC_GDPS_GeopotentialHeight_IsbL-0800_LatLon0.15_PT033H.grib2 2026-04-24 16:02 698K
20260424T12Z_MSC_GDPS_GeopotentialHeight_IsbL-0850_LatLon0.15_PT033H.grib2 2026-04-24 16:02 707K
20260424T12Z_MSC_GDPS_GeopotentialHeight_IsbL-0875_LatLon0.15_PT033H.grib2 2026-04-24 16:02 706K
20260424T12Z_MSC_GDPS_GeopotentialHeight_IsbL-0900_LatLon0.15_PT033H.grib2 2026-04-24 16:02 718K
20260424T12Z_MSC_GDPS_GeopotentialHeight_IsbL-0925_LatLon0.15_PT033H.grib2 2026-04-24 16:02 723K
20260424T12Z_MSC_GDPS_GeopotentialHeight_IsbL-0950_LatLon0.15_PT033H.grib2 2026-04-24 16:02 733K
20260424T12Z_MSC_GDPS_GeopotentialHeight_IsbL-0970_LatLon0.15_PT033H.grib2 2026-04-24 16:02 745K
20260424T12Z_MSC_GDPS_GeopotentialHeight_IsbL-0985_LatLon0.15_PT033H.grib2 2026-04-24 16:02 762K
20260424T12Z_MSC_GDPS_GeopotentialHeight_IsbL-1000_LatLon0.15_PT033H.grib2 2026-04-24 16:02 784K
20260424T12Z_MSC_GDPS_GeopotentialHeight_IsbL-1015_LatLon0.15_PT033H.grib2 2026-04-24 16:02 808K
20260424T12Z_MSC_GDPS_Humidex_Sfc_LatLon0.15_PT033H.grib2 2026-04-24 16:02 5.3M
20260424T12Z_MSC_GDPS_IcePellets-Accum1h_Sfc_LatLon0.15_PT033H.grib2 2026-04-24 16:02 21K
20260424T12Z_MSC_GDPS_IcePellets-Accum3h_Sfc_LatLon0.15_PT033H.grib2 2026-04-24 16:02 26K
20260424T12Z_MSC_GDPS_IcePellets-Accum_Sfc_LatLon0.15_PT033H.grib2 2026-04-24 16:02 73K
20260424T12Z_MSC_GDPS_KIndex_Sfc_LatLon0.15_PT033H.grib2 2026-04-24 16:02 6.4M
20260424T12Z_MSC_GDPS_LatentHeatNetFlux_Sfc_LatLon0.15_PT033H.grib2 2026-04-24 16:02 665K
20260424T12Z_MSC_GDPS_LiftedIndex-MU-VT_IsbL-0500_LatLon0.15_PT033H.grib2 2026-04-24 16:02 5.4M
20260424T12Z_MSC_GDPS_NetLongwaveRadiationFlux-Accum_Sfc_LatLon0.15_PT033H.grib2 2026-04-24 16:02 1.0M
20260424T12Z_MSC_GDPS_NetShortwaveRadiationFlux-Accum_Sfc_LatLon0.15_PT033H.grib2 2026-04-24 16:02 916K
20260424T12Z_MSC_GDPS_O3MixingRatio_LatLon0.15_PT033H.grib2 2026-04-24 16:49 2.4M
20260424T12Z_MSC_GDPS_O3_EAtm_LatLon0.15_PT033H.grib2 2026-04-24 16:49 2.5M
20260424T12Z_MSC_GDPS_PlanetaryBoundaryLayerHeight_Sfc_LatLon0.15_PT033H.grib2 2026-04-24 16:02 2.4M
20260424T12Z_MSC_GDPS_Precip-Accum1h_Sfc_LatLon0.15_PT033H.grib2 2026-04-24 16:02 3.3M
20260424T12Z_MSC_GDPS_Precip-Accum3h_Sfc_LatLon0.15_PT033H.grib2 2026-04-24 16:02 3.6M
20260424T12Z_MSC_GDPS_Precip-Accum_Sfc_LatLon0.15_PT033H.grib2 2026-04-24 16:02 4.3M
20260424T12Z_MSC_GDPS_PrecipRate_Sfc_LatLon0.15_PT033H.grib2 2026-04-24 16:02 3.2M
20260424T12Z_MSC_GDPS_PrecipType-Instant_Sfc_LatLon0.15_PT033H.grib2 2026-04-24 16:02 1.6M
20260424T12Z_MSC_GDPS_Pressure_MSL_LatLon0.15_PT033H.grib2 2026-04-24 16:02 722K
20260424T12Z_MSC_GDPS_Pressure_PVU-1.5_LatLon0.15_PT033H.grib2 2026-04-24 16:02 5.8M
20260424T12Z_MSC_GDPS_Pressure_PVU-1_LatLon0.15_PT033H.grib2 2026-04-24 16:02 6.0M
20260424T12Z_MSC_GDPS_Pressure_PVU-2_LatLon0.15_PT033H.grib2 2026-04-24 16:02 5.6M
20260424T12Z_MSC_GDPS_Pressure_Sfc_LatLon0.15_PT033H.grib2 2026-04-24 16:02 1.1M
20260424T12Z_MSC_GDPS_RadiativeTemp_Sfc_LatLon0.15_PT033H.grib2 2026-04-24 16:02 663K
20260424T12Z_MSC_GDPS_Rain-Accum1h_Sfc_LatLon0.15_PT033H.grib2 2026-04-24 16:02 1.5M
20260424T12Z_MSC_GDPS_Rain-Accum3h_Sfc_LatLon0.15_PT033H.grib2 2026-04-24 16:02 1.7M
20260424T12Z_MSC_GDPS_Rain-Accum_Sfc_LatLon0.15_PT033H.grib2 2026-04-24 16:02 3.2M
20260424T12Z_MSC_GDPS_RelativeHumidity_AGL-2m_LatLon0.15_PT033H.grib2 2026-04-24 16:02 1.1M
20260424T12Z_MSC_GDPS_RelativeHumidity_IsbL-0010_LatLon0.15_PT033H.grib2 2026-04-24 16:02 274K
20260424T12Z_MSC_GDPS_RelativeHumidity_IsbL-0020_LatLon0.15_PT033H.grib2 2026-04-24 16:02 288K
20260424T12Z_MSC_GDPS_RelativeHumidity_IsbL-0030_LatLon0.15_PT033H.grib2 2026-04-24 16:02 432K
20260424T12Z_MSC_GDPS_RelativeHumidity_IsbL-0050_LatLon0.15_PT033H.grib2 2026-04-24 16:02 335K
20260424T12Z_MSC_GDPS_RelativeHumidity_IsbL-0100_LatLon0.15_PT033H.grib2 2026-04-24 16:02 500K
20260424T12Z_MSC_GDPS_RelativeHumidity_IsbL-0150_LatLon0.15_PT033H.grib2 2026-04-24 16:02 655K
20260424T12Z_MSC_GDPS_RelativeHumidity_IsbL-0175_LatLon0.15_PT033H.grib2 2026-04-24 16:02 776K
20260424T12Z_MSC_GDPS_RelativeHumidity_IsbL-0200_LatLon0.15_PT033H.grib2 2026-04-24 16:02 692K
20260424T12Z_MSC_GDPS_RelativeHumidity_IsbL-0225_LatLon0.15_PT033H.grib2 2026-04-24 16:02 778K
20260424T12Z_MSC_GDPS_RelativeHumidity_IsbL-0250_LatLon0.15_PT033H.grib2 2026-04-24 16:02 864K
20260424T12Z_MSC_GDPS_RelativeHumidity_IsbL-0275_LatLon0.15_PT033H.grib2 2026-04-24 16:02 893K
20260424T12Z_MSC_GDPS_RelativeHumidity_IsbL-0300_LatLon0.15_PT033H.grib2 2026-04-24 16:02 942K
20260424T12Z_MSC_GDPS_RelativeHumidity_IsbL-0350_LatLon0.15_PT033H.grib2 2026-04-24 16:02 966K
20260424T12Z_MSC_GDPS_RelativeHumidity_IsbL-0400_LatLon0.15_PT033H.grib2 2026-04-24 16:02 1.0M
20260424T12Z_MSC_GDPS_RelativeHumidity_IsbL-0450_LatLon0.15_PT033H.grib2 2026-04-24 16:02 1.0M
20260424T12Z_MSC_GDPS_RelativeHumidity_IsbL-0500_LatLon0.15_PT033H.grib2 2026-04-24 16:02 1.0M
20260424T12Z_MSC_GDPS_RelativeHumidity_IsbL-0550_LatLon0.15_PT033H.grib2 2026-04-24 16:02 1.1M
20260424T12Z_MSC_GDPS_RelativeHumidity_IsbL-0600_LatLon0.15_PT033H.grib2 2026-04-24 16:02 1.1M
20260424T12Z_MSC_GDPS_RelativeHumidity_IsbL-0650_LatLon0.15_PT033H.grib2 2026-04-24 16:02 1.1M
20260424T12Z_MSC_GDPS_RelativeHumidity_IsbL-0700_LatLon0.15_PT033H.grib2 2026-04-24 16:02 1.1M
20260424T12Z_MSC_GDPS_RelativeHumidity_IsbL-0750_LatLon0.15_PT033H.grib2 2026-04-24 16:02 1.2M
20260424T12Z_MSC_GDPS_RelativeHumidity_IsbL-0800_LatLon0.15_PT033H.grib2 2026-04-24 16:02 1.3M
20260424T12Z_MSC_GDPS_RelativeHumidity_IsbL-0850_LatLon0.15_PT033H.grib2 2026-04-24 16:02 1.3M
20260424T12Z_MSC_GDPS_RelativeHumidity_IsbL-0875_LatLon0.15_PT033H.grib2 2026-04-24 16:02 1.3M
20260424T12Z_MSC_GDPS_RelativeHumidity_IsbL-0900_LatLon0.15_PT033H.grib2 2026-04-24 16:02 1.2M
20260424T12Z_MSC_GDPS_RelativeHumidity_IsbL-0925_LatLon0.15_PT033H.grib2 2026-04-24 16:02 1.2M
20260424T12Z_MSC_GDPS_RelativeHumidity_IsbL-0950_LatLon0.15_PT033H.grib2 2026-04-24 16:02 1.2M
20260424T12Z_MSC_GDPS_RelativeHumidity_IsbL-0970_LatLon0.15_PT033H.grib2 2026-04-24 16:02 1.2M
20260424T12Z_MSC_GDPS_RelativeHumidity_IsbL-0985_LatLon0.15_PT033H.grib2 2026-04-24 16:02 1.2M
20260424T12Z_MSC_GDPS_RelativeHumidity_IsbL-1000_LatLon0.15_PT033H.grib2 2026-04-24 16:02 1.1M
20260424T12Z_MSC_GDPS_RelativeHumidity_IsbL-1015_LatLon0.15_PT033H.grib2 2026-04-24 16:02 1.1M
20260424T12Z_MSC_GDPS_RelativeVorticity_IsbL-0200_LatLon0.15_PT033H.grib2 2026-04-24 16:02 1.5M
20260424T12Z_MSC_GDPS_RelativeVorticity_IsbL-0250_LatLon0.15_PT033H.grib2 2026-04-24 16:02 1.3M
20260424T12Z_MSC_GDPS_RelativeVorticity_IsbL-0500_LatLon0.15_PT033H.grib2 2026-04-24 16:02 1.5M
20260424T12Z_MSC_GDPS_RelativeVorticity_IsbL-0700_LatLon0.15_PT033H.grib2 2026-04-24 16:02 1.6M
20260424T12Z_MSC_GDPS_RelativeVorticity_IsbL-0850_LatLon0.15_PT033H.grib2 2026-04-24 16:02 1.6M
20260424T12Z_MSC_GDPS_Runoff-Accum_Sfc_LatLon0.15_PT033H.grib2 2026-04-24 16:02 126K
20260424T12Z_MSC_GDPS_SensibleHeatNetFlux_Sfc_LatLon0.15_PT033H.grib2 2026-04-24 16:02 443K
20260424T12Z_MSC_GDPS_ShowalterIndex_IsbL-0500_LatLon0.15_PT033H.grib2 2026-04-24 16:02 6.2M
20260424T12Z_MSC_GDPS_Snow-Accum1h_Sfc_LatLon0.15_PT033H.grib2 2026-04-24 16:02 1.1M
20260424T12Z_MSC_GDPS_Snow-Accum3h_Sfc_LatLon0.15_PT033H.grib2 2026-04-24 16:02 1.2M
20260424T12Z_MSC_GDPS_Snow-Accum_Sfc_LatLon0.15_PT033H.grib2 2026-04-24 16:02 1.9M
20260424T12Z_MSC_GDPS_SnowDensity_Sfc_LatLon0.15_PT033H.grib2 2026-04-24 16:02 264K
20260424T12Z_MSC_GDPS_SnowDepth_Sfc_LatLon0.15_PT033H.grib2 2026-04-24 16:02 1.8M
20260424T12Z_MSC_GDPS_SoilTemp_DBS-0to10cm_LatLon0.15_PT033H.grib2 2026-04-24 16:02 503K
20260424T12Z_MSC_GDPS_SoilTemp_Sfc_LatLon0.15_PT033H.grib2 2026-04-24 16:02 579K
20260424T12Z_MSC_GDPS_SoilVolumetricIceContent_Sfc_LatLon0.15_PT033H.grib2 2026-04-24 16:02 214K
20260424T12Z_MSC_GDPS_SoilVolumetricWaterContent_DBS-0to10cm_LatLon0.15_PT033H.grib2 2026-04-24 16:02 563K
20260424T12Z_MSC_GDPS_SoilVolumetricWaterContent_DBS-0to1cm_LatLon0.15_PT033H.grib2 2026-04-24 16:02 650K
20260424T12Z_MSC_GDPS_SpecificHumidity_AGL-120m_LatLon0.15_PT033H.grib2 2026-04-24 16:02 1.1M
20260424T12Z_MSC_GDPS_SpecificHumidity_AGL-2m_LatLon0.15_PT033H.grib2 2026-04-24 16:02 1.2M
20260424T12Z_MSC_GDPS_SpecificHumidity_AGL-40m_LatLon0.15_PT033H.grib2 2026-04-24 16:02 1.1M
20260424T12Z_MSC_GDPS_SpecificHumidity_AGL-80m_LatLon0.15_PT033H.grib2 2026-04-24 16:02 1.1M
20260424T12Z_MSC_GDPS_SpecificHumidity_IsbL-0001_LatLon0.15_PT033H.grib2 2026-04-24 16:02 1.3M
20260424T12Z_MSC_GDPS_SpecificHumidity_IsbL-0005_LatLon0.15_PT033H.grib2 2026-04-24 16:02 1.2M
20260424T12Z_MSC_GDPS_SpecificHumidity_IsbL-0010_LatLon0.15_PT033H.grib2 2026-04-24 16:02 1.3M
20260424T12Z_MSC_GDPS_SpecificHumidity_IsbL-0020_LatLon0.15_PT033H.grib2 2026-04-24 16:02 1.4M
20260424T12Z_MSC_GDPS_SpecificHumidity_IsbL-0030_LatLon0.15_PT033H.grib2 2026-04-24 16:02 1.4M
20260424T12Z_MSC_GDPS_SpecificHumidity_IsbL-0050_LatLon0.15_PT033H.grib2 2026-04-24 16:02 1.4M
20260424T12Z_MSC_GDPS_SpecificHumidity_IsbL-0100_LatLon0.15_PT033H.grib2 2026-04-24 16:02 1.4M
20260424T12Z_MSC_GDPS_SpecificHumidity_IsbL-0150_LatLon0.15_PT033H.grib2 2026-04-24 16:02 1.0M
20260424T12Z_MSC_GDPS_SpecificHumidity_IsbL-0175_LatLon0.15_PT033H.grib2 2026-04-24 16:02 1.3M
20260424T12Z_MSC_GDPS_SpecificHumidity_IsbL-0200_LatLon0.15_PT033H.grib2 2026-04-24 16:02 1.3M
20260424T12Z_MSC_GDPS_SpecificHumidity_IsbL-0225_LatLon0.15_PT033H.grib2 2026-04-24 16:02 1.3M
20260424T12Z_MSC_GDPS_SpecificHumidity_IsbL-0250_LatLon0.15_PT033H.grib2 2026-04-24 16:02 1.4M
20260424T12Z_MSC_GDPS_SpecificHumidity_IsbL-0275_LatLon0.15_PT033H.grib2 2026-04-24 16:02 1.3M
20260424T12Z_MSC_GDPS_SpecificHumidity_IsbL-0300_LatLon0.15_PT033H.grib2 2026-04-24 16:02 1.2M
20260424T12Z_MSC_GDPS_SpecificHumidity_IsbL-0350_LatLon0.15_PT033H.grib2 2026-04-24 16:02 1.2M
20260424T12Z_MSC_GDPS_SpecificHumidity_IsbL-0400_LatLon0.15_PT033H.grib2 2026-04-24 16:02 1.5M
20260424T12Z_MSC_GDPS_SpecificHumidity_IsbL-0450_LatLon0.15_PT033H.grib2 2026-04-24 16:02 1.6M
20260424T12Z_MSC_GDPS_SpecificHumidity_IsbL-0500_LatLon0.15_PT033H.grib2 2026-04-24 16:02 1.4M
20260424T12Z_MSC_GDPS_SpecificHumidity_IsbL-0550_LatLon0.15_PT033H.grib2 2026-04-24 16:02 1.6M
20260424T12Z_MSC_GDPS_SpecificHumidity_IsbL-0600_LatLon0.15_PT033H.grib2 2026-04-24 16:02 1.7M
20260424T12Z_MSC_GDPS_SpecificHumidity_IsbL-0650_LatLon0.15_PT033H.grib2 2026-04-24 16:02 1.5M
20260424T12Z_MSC_GDPS_SpecificHumidity_IsbL-0700_LatLon0.15_PT033H.grib2 2026-04-24 16:02 1.6M
20260424T12Z_MSC_GDPS_SpecificHumidity_IsbL-0750_LatLon0.15_PT033H.grib2 2026-04-24 16:02 1.7M
20260424T12Z_MSC_GDPS_SpecificHumidity_IsbL-0800_LatLon0.15_PT033H.grib2 2026-04-24 16:02 1.8M
20260424T12Z_MSC_GDPS_SpecificHumidity_IsbL-0850_LatLon0.15_PT033H.grib2 2026-04-24 16:02 1.9M
20260424T12Z_MSC_GDPS_SpecificHumidity_IsbL-0875_LatLon0.15_PT033H.grib2 2026-04-24 16:02 1.9M
20260424T12Z_MSC_GDPS_SpecificHumidity_IsbL-0900_LatLon0.15_PT033H.grib2 2026-04-24 16:02 1.9M
20260424T12Z_MSC_GDPS_SpecificHumidity_IsbL-0925_LatLon0.15_PT033H.grib2 2026-04-24 16:02 1.6M
20260424T12Z_MSC_GDPS_SpecificHumidity_IsbL-0950_LatLon0.15_PT033H.grib2 2026-04-24 16:02 1.5M
20260424T12Z_MSC_GDPS_SpecificHumidity_IsbL-0970_LatLon0.15_PT033H.grib2 2026-04-24 16:02 1.5M
20260424T12Z_MSC_GDPS_SpecificHumidity_IsbL-0985_LatLon0.15_PT033H.grib2 2026-04-24 16:02 1.5M
20260424T12Z_MSC_GDPS_SpecificHumidity_IsbL-1000_LatLon0.15_PT033H.grib2 2026-04-24 16:02 1.5M
20260424T12Z_MSC_GDPS_SpecificHumidity_IsbL-1015_LatLon0.15_PT033H.grib2 2026-04-24 16:02 1.4M
20260424T12Z_MSC_GDPS_SpecificHumidity_Sfc_LatLon0.15_PT033H.grib2 2026-04-24 16:02 634K
20260424T12Z_MSC_GDPS_Thickness_IsbL-0850to0700_LatLon0.15_PT033H.grib2 2026-04-24 16:02 463K
20260424T12Z_MSC_GDPS_Thickness_IsbL-1000to0500_LatLon0.15_PT033H.grib2 2026-04-24 16:02 369K
20260424T12Z_MSC_GDPS_Thickness_IsbL-1000to0850_LatLon0.15_PT033H.grib2 2026-04-24 16:02 490K
20260424T12Z_MSC_GDPS_TotalCloudCover_Sfc_LatLon0.15_PT033H.grib2 2026-04-24 16:02 844K
20260424T12Z_MSC_GDPS_TotalTotalsIndex_Sfc_LatLon0.15_PT033H.grib2 2026-04-24 16:02 6.2M
20260424T12Z_MSC_GDPS_UVIndex-ClearSky_Sfc_LatLon0.15_PT033H.grib2 2026-04-24 16:49 1.0M
20260424T12Z_MSC_GDPS_UVIndex_Sfc_LatLon0.15_PT033H.grib2 2026-04-24 16:49 1.5M
20260424T12Z_MSC_GDPS_UpwardLongwaveRadiationFlux_NTAtm_LatLon0.15_PT033H.grib2 2026-04-24 16:02 842K
20260424T12Z_MSC_GDPS_VerticalVelocity_IsbL-0200_LatLon0.15_PT033H.grib2 2026-04-24 16:02 940K
20260424T12Z_MSC_GDPS_VerticalVelocity_IsbL-0250_LatLon0.15_PT033H.grib2 2026-04-24 16:02 849K
20260424T12Z_MSC_GDPS_VerticalVelocity_IsbL-0500_LatLon0.15_PT033H.grib2 2026-04-24 16:02 1.3M
20260424T12Z_MSC_GDPS_VerticalVelocity_IsbL-0600_LatLon0.15_PT033H.grib2 2026-04-24 16:02 1.3M
20260424T12Z_MSC_GDPS_VerticalVelocity_IsbL-0700_LatLon0.15_PT033H.grib2 2026-04-24 16:02 1.4M
20260424T12Z_MSC_GDPS_VerticalVelocity_IsbL-0850_LatLon0.15_PT033H.grib2 2026-04-24 16:02 1.3M
20260424T12Z_MSC_GDPS_WindChill_Sfc_LatLon0.15_PT033H.grib2 2026-04-24 16:02 5.3M
20260424T12Z_MSC_GDPS_WindDir_AGL-10m_LatLon0.15_PT033H.grib2 2026-04-24 16:02 1.4M
20260424T12Z_MSC_GDPS_WindDir_AGL-120m_LatLon0.15_PT033H.grib2 2026-04-24 16:02 1.4M
20260424T12Z_MSC_GDPS_WindDir_AGL-40m_LatLon0.15_PT033H.grib2 2026-04-24 16:02 1.4M
20260424T12Z_MSC_GDPS_WindDir_AGL-80m_LatLon0.15_PT033H.grib2 2026-04-24 16:02 1.4M
20260424T12Z_MSC_GDPS_WindDir_IsbL-0001_LatLon0.15_PT033H.grib2 2026-04-24 16:02 657K
20260424T12Z_MSC_GDPS_WindDir_IsbL-0005_LatLon0.15_PT033H.grib2 2026-04-24 16:02 834K
20260424T12Z_MSC_GDPS_WindDir_IsbL-0010_LatLon0.15_PT033H.grib2 2026-04-24 16:02 872K
20260424T12Z_MSC_GDPS_WindDir_IsbL-0020_LatLon0.15_PT033H.grib2 2026-04-24 16:02 967K
20260424T12Z_MSC_GDPS_WindDir_IsbL-0030_LatLon0.15_PT033H.grib2 2026-04-24 16:02 943K
20260424T12Z_MSC_GDPS_WindDir_IsbL-0050_LatLon0.15_PT033H.grib2 2026-04-24 16:02 958K
20260424T12Z_MSC_GDPS_WindDir_IsbL-0100_LatLon0.15_PT033H.grib2 2026-04-24 16:02 1.0M
20260424T12Z_MSC_GDPS_WindDir_IsbL-0150_LatLon0.15_PT033H.grib2 2026-04-24 16:02 1.0M
20260424T12Z_MSC_GDPS_WindDir_IsbL-0175_LatLon0.15_PT033H.grib2 2026-04-24 16:02 1.0M
20260424T12Z_MSC_GDPS_WindDir_IsbL-0200_LatLon0.15_PT033H.grib2 2026-04-24 16:02 1.1M
20260424T12Z_MSC_GDPS_WindDir_IsbL-0225_LatLon0.15_PT033H.grib2 2026-04-24 16:02 1.1M
20260424T12Z_MSC_GDPS_WindDir_IsbL-0250_LatLon0.15_PT033H.grib2 2026-04-24 16:02 1.1M
20260424T12Z_MSC_GDPS_WindDir_IsbL-0275_LatLon0.15_PT033H.grib2 2026-04-24 16:02 1.2M
20260424T12Z_MSC_GDPS_WindDir_IsbL-0300_LatLon0.15_PT033H.grib2 2026-04-24 16:02 1.2M
20260424T12Z_MSC_GDPS_WindDir_IsbL-0350_LatLon0.15_PT033H.grib2 2026-04-24 16:02 1.2M
20260424T12Z_MSC_GDPS_WindDir_IsbL-0400_LatLon0.15_PT033H.grib2 2026-04-24 16:02 1.3M
20260424T12Z_MSC_GDPS_WindDir_IsbL-0450_LatLon0.15_PT033H.grib2 2026-04-24 16:02 1.3M
20260424T12Z_MSC_GDPS_WindDir_IsbL-0500_LatLon0.15_PT033H.grib2 2026-04-24 16:02 1.4M
20260424T12Z_MSC_GDPS_WindDir_IsbL-0550_LatLon0.15_PT033H.grib2 2026-04-24 16:02 1.4M
20260424T12Z_MSC_GDPS_WindDir_IsbL-0600_LatLon0.15_PT033H.grib2 2026-04-24 16:02 1.5M
20260424T12Z_MSC_GDPS_WindDir_IsbL-0650_LatLon0.15_PT033H.grib2 2026-04-24 16:02 1.6M
20260424T12Z_MSC_GDPS_WindDir_IsbL-0700_LatLon0.15_PT033H.grib2 2026-04-24 16:02 1.6M
20260424T12Z_MSC_GDPS_WindDir_IsbL-0750_LatLon0.15_PT033H.grib2 2026-04-24 16:02 1.7M
20260424T12Z_MSC_GDPS_WindDir_IsbL-0800_LatLon0.15_PT033H.grib2 2026-04-24 16:02 1.8M
20260424T12Z_MSC_GDPS_WindDir_IsbL-0850_LatLon0.15_PT033H.grib2 2026-04-24 16:02 1.9M
20260424T12Z_MSC_GDPS_WindDir_IsbL-0875_LatLon0.15_PT033H.grib2 2026-04-24 16:02 2.0M
20260424T12Z_MSC_GDPS_WindDir_IsbL-0900_LatLon0.15_PT033H.grib2 2026-04-24 16:02 2.0M
20260424T12Z_MSC_GDPS_WindDir_IsbL-0925_LatLon0.15_PT033H.grib2 2026-04-24 16:02 2.0M
20260424T12Z_MSC_GDPS_WindDir_IsbL-0950_LatLon0.15_PT033H.grib2 2026-04-24 16:02 2.0M
20260424T12Z_MSC_GDPS_WindDir_IsbL-0970_LatLon0.15_PT033H.grib2 2026-04-24 16:02 2.0M
20260424T12Z_MSC_GDPS_WindDir_IsbL-0985_LatLon0.15_PT033H.grib2 2026-04-24 16:02 2.1M
20260424T12Z_MSC_GDPS_WindDir_IsbL-1000_LatLon0.15_PT033H.grib2 2026-04-24 16:02 2.1M
20260424T12Z_MSC_GDPS_WindDir_IsbL-1015_LatLon0.15_PT033H.grib2 2026-04-24 16:02 2.1M
20260424T12Z_MSC_GDPS_WindGust-Max_AGL-10m_LatLon0.15_PT033H.grib2 2026-04-24 16:02 2.2M
20260424T12Z_MSC_GDPS_WindGust-Min_AGL-10m_LatLon0.15_PT033H.grib2 2026-04-24 16:02 2.2M
20260424T12Z_MSC_GDPS_WindGust_AGL-10m_LatLon0.15_PT033H.grib2 2026-04-24 16:02 2.2M
20260424T12Z_MSC_GDPS_WindSpeed_AGL-10m_LatLon0.15_PT033H.grib2 2026-04-24 16:02 1.1M
20260424T12Z_MSC_GDPS_WindSpeed_AGL-120m_LatLon0.15_PT033H.grib2 2026-04-24 16:02 1.3M
20260424T12Z_MSC_GDPS_WindSpeed_AGL-40m_LatLon0.15_PT033H.grib2 2026-04-24 16:02 1.2M
20260424T12Z_MSC_GDPS_WindSpeed_AGL-80m_LatLon0.15_PT033H.grib2 2026-04-24 16:02 1.3M
20260424T12Z_MSC_GDPS_WindSpeed_IsbL-0001_LatLon0.15_PT033H.grib2 2026-04-24 16:02 643K
20260424T12Z_MSC_GDPS_WindSpeed_IsbL-0005_LatLon0.15_PT033H.grib2 2026-04-24 16:02 619K
20260424T12Z_MSC_GDPS_WindSpeed_IsbL-0010_LatLon0.15_PT033H.grib2 2026-04-24 16:02 634K
20260424T12Z_MSC_GDPS_WindSpeed_IsbL-0020_LatLon0.15_PT033H.grib2 2026-04-24 16:02 864K
20260424T12Z_MSC_GDPS_WindSpeed_IsbL-0030_LatLon0.15_PT033H.grib2 2026-04-24 16:02 869K
20260424T12Z_MSC_GDPS_WindSpeed_IsbL-0050_LatLon0.15_PT033H.grib2 2026-04-24 16:02 1.0M
20260424T12Z_MSC_GDPS_WindSpeed_IsbL-0100_LatLon0.15_PT033H.grib2 2026-04-24 16:02 1.1M
20260424T12Z_MSC_GDPS_WindSpeed_IsbL-0150_LatLon0.15_PT033H.grib2 2026-04-24 16:02 1.0M
20260424T12Z_MSC_GDPS_WindSpeed_IsbL-0175_LatLon0.15_PT033H.grib2 2026-04-24 16:02 1.0M
20260424T12Z_MSC_GDPS_WindSpeed_IsbL-0200_LatLon0.15_PT033H.grib2 2026-04-24 16:02 1.1M
20260424T12Z_MSC_GDPS_WindSpeed_IsbL-0225_LatLon0.15_PT033H.grib2 2026-04-24 16:02 1.1M
20260424T12Z_MSC_GDPS_WindSpeed_IsbL-0250_LatLon0.15_PT033H.grib2 2026-04-24 16:02 1.1M
20260424T12Z_MSC_GDPS_WindSpeed_IsbL-0275_LatLon0.15_PT033H.grib2 2026-04-24 16:02 1.1M
20260424T12Z_MSC_GDPS_WindSpeed_IsbL-0300_LatLon0.15_PT033H.grib2 2026-04-24 16:02 1.1M
20260424T12Z_MSC_GDPS_WindSpeed_IsbL-0350_LatLon0.15_PT033H.grib2 2026-04-24 16:02 1.1M
20260424T12Z_MSC_GDPS_WindSpeed_IsbL-0400_LatLon0.15_PT033H.grib2 2026-04-24 16:02 1.1M
20260424T12Z_MSC_GDPS_WindSpeed_IsbL-0450_LatLon0.15_PT033H.grib2 2026-04-24 16:02 1.1M
20260424T12Z_MSC_GDPS_WindSpeed_IsbL-0500_LatLon0.15_PT033H.grib2 2026-04-24 16:02 1.1M
20260424T12Z_MSC_GDPS_WindSpeed_IsbL-0550_LatLon0.15_PT033H.grib2 2026-04-24 16:02 1.1M
20260424T12Z_MSC_GDPS_WindSpeed_IsbL-0600_LatLon0.15_PT033H.grib2 2026-04-24 16:02 1.1M
20260424T12Z_MSC_GDPS_WindSpeed_IsbL-0650_LatLon0.15_PT033H.grib2 2026-04-24 16:02 1.5M
20260424T12Z_MSC_GDPS_WindSpeed_IsbL-0700_LatLon0.15_PT033H.grib2 2026-04-24 16:02 1.5M
20260424T12Z_MSC_GDPS_WindSpeed_IsbL-0750_LatLon0.15_PT033H.grib2 2026-04-24 16:02 1.7M
20260424T12Z_MSC_GDPS_WindSpeed_IsbL-0800_LatLon0.15_PT033H.grib2 2026-04-24 16:02 1.8M
20260424T12Z_MSC_GDPS_WindSpeed_IsbL-0850_LatLon0.15_PT033H.grib2 2026-04-24 16:02 1.9M
20260424T12Z_MSC_GDPS_WindSpeed_IsbL-0875_LatLon0.15_PT033H.grib2 2026-04-24 16:02 1.8M
20260424T12Z_MSC_GDPS_WindSpeed_IsbL-0900_LatLon0.15_PT033H.grib2 2026-04-24 16:02 1.8M
20260424T12Z_MSC_GDPS_WindSpeed_IsbL-0925_LatLon0.15_PT033H.grib2 2026-04-24 16:02 1.8M
20260424T12Z_MSC_GDPS_WindSpeed_IsbL-0950_LatLon0.15_PT033H.grib2 2026-04-24 16:02 1.9M
20260424T12Z_MSC_GDPS_WindSpeed_IsbL-0970_LatLon0.15_PT033H.grib2 2026-04-24 16:02 1.9M
20260424T12Z_MSC_GDPS_WindSpeed_IsbL-0985_LatLon0.15_PT033H.grib2 2026-04-24 16:02 1.9M
20260424T12Z_MSC_GDPS_WindSpeed_IsbL-1000_LatLon0.15_PT033H.grib2 2026-04-24 16:02 1.9M
20260424T12Z_MSC_GDPS_WindSpeed_IsbL-1015_LatLon0.15_PT033H.grib2 2026-04-24 16:02 1.8M
20260424T12Z_MSC_GDPS_WindU_AGL-10m_LatLon0.15_PT033H.grib2 2026-04-24 16:02 1.3M
20260424T12Z_MSC_GDPS_WindU_AGL-120m_LatLon0.15_PT033H.grib2 2026-04-24 16:02 1.0M
20260424T12Z_MSC_GDPS_WindU_AGL-40m_LatLon0.15_PT033H.grib2 2026-04-24 16:02 1.0M
20260424T12Z_MSC_GDPS_WindU_AGL-80m_LatLon0.15_PT033H.grib2 2026-04-24 16:02 1.0M
20260424T12Z_MSC_GDPS_WindU_IsbL-0001_LatLon0.15_PT033H.grib2 2026-04-24 16:02 645K
20260424T12Z_MSC_GDPS_WindU_IsbL-0005_LatLon0.15_PT033H.grib2 2026-04-24 16:02 695K
20260424T12Z_MSC_GDPS_WindU_IsbL-0010_LatLon0.15_PT033H.grib2 2026-04-24 16:02 709K
20260424T12Z_MSC_GDPS_WindU_IsbL-0020_LatLon0.15_PT033H.grib2 2026-04-24 16:02 738K
20260424T12Z_MSC_GDPS_WindU_IsbL-0030_LatLon0.15_PT033H.grib2 2026-04-24 16:02 744K
20260424T12Z_MSC_GDPS_WindU_IsbL-0050_LatLon0.15_PT033H.grib2 2026-04-24 16:02 704K
20260424T12Z_MSC_GDPS_WindU_IsbL-0100_LatLon0.15_PT033H.grib2 2026-04-24 16:02 915K
20260424T12Z_MSC_GDPS_WindU_IsbL-0150_LatLon0.15_PT033H.grib2 2026-04-24 16:02 769K
20260424T12Z_MSC_GDPS_WindU_IsbL-0175_LatLon0.15_PT033H.grib2 2026-04-24 16:02 813K
20260424T12Z_MSC_GDPS_WindU_IsbL-0200_LatLon0.15_PT033H.grib2 2026-04-24 16:02 845K
20260424T12Z_MSC_GDPS_WindU_IsbL-0225_LatLon0.15_PT033H.grib2 2026-04-24 16:02 854K
20260424T12Z_MSC_GDPS_WindU_IsbL-0250_LatLon0.15_PT033H.grib2 2026-04-24 16:02 857K
20260424T12Z_MSC_GDPS_WindU_IsbL-0275_LatLon0.15_PT033H.grib2 2026-04-24 16:02 885K
20260424T12Z_MSC_GDPS_WindU_IsbL-0300_LatLon0.15_PT033H.grib2 2026-04-24 16:02 879K
20260424T12Z_MSC_GDPS_WindU_IsbL-0350_LatLon0.15_PT033H.grib2 2026-04-24 16:02 894K
20260424T12Z_MSC_GDPS_WindU_IsbL-0400_LatLon0.15_PT033H.grib2 2026-04-24 16:02 895K
20260424T12Z_MSC_GDPS_WindU_IsbL-0450_LatLon0.15_PT033H.grib2 2026-04-24 16:02 1.1M
20260424T12Z_MSC_GDPS_WindU_IsbL-0500_LatLon0.15_PT033H.grib2 2026-04-24 16:02 1.1M
20260424T12Z_MSC_GDPS_WindU_IsbL-0550_LatLon0.15_PT033H.grib2 2026-04-24 16:02 1.1M
20260424T12Z_MSC_GDPS_WindU_IsbL-0600_LatLon0.15_PT033H.grib2 2026-04-24 16:02 1.2M
20260424T12Z_MSC_GDPS_WindU_IsbL-0650_LatLon0.15_PT033H.grib2 2026-04-24 16:02 1.2M
20260424T12Z_MSC_GDPS_WindU_IsbL-0700_LatLon0.15_PT033H.grib2 2026-04-24 16:02 1.2M
20260424T12Z_MSC_GDPS_WindU_IsbL-0750_LatLon0.15_PT033H.grib2 2026-04-24 16:02 1.3M
20260424T12Z_MSC_GDPS_WindU_IsbL-0800_LatLon0.15_PT033H.grib2 2026-04-24 16:02 1.4M
20260424T12Z_MSC_GDPS_WindU_IsbL-0850_LatLon0.15_PT033H.grib2 2026-04-24 16:02 1.4M
20260424T12Z_MSC_GDPS_WindU_IsbL-0875_LatLon0.15_PT033H.grib2 2026-04-24 16:02 1.5M
20260424T12Z_MSC_GDPS_WindU_IsbL-0900_LatLon0.15_PT033H.grib2 2026-04-24 16:02 1.5M
20260424T12Z_MSC_GDPS_WindU_IsbL-0925_LatLon0.15_PT033H.grib2 2026-04-24 16:02 1.5M
20260424T12Z_MSC_GDPS_WindU_IsbL-0950_LatLon0.15_PT033H.grib2 2026-04-24 16:02 1.4M
20260424T12Z_MSC_GDPS_WindU_IsbL-0970_LatLon0.15_PT033H.grib2 2026-04-24 16:02 1.4M
20260424T12Z_MSC_GDPS_WindU_IsbL-0985_LatLon0.15_PT033H.grib2 2026-04-24 16:02 1.4M
20260424T12Z_MSC_GDPS_WindU_IsbL-1000_LatLon0.15_PT033H.grib2 2026-04-24 16:02 1.4M
20260424T12Z_MSC_GDPS_WindU_IsbL-1015_LatLon0.15_PT033H.grib2 2026-04-24 16:02 1.4M
20260424T12Z_MSC_GDPS_WindV_AGL-10m_LatLon0.15_PT033H.grib2 2026-04-24 16:02 1.3M
20260424T12Z_MSC_GDPS_WindV_AGL-120m_LatLon0.15_PT033H.grib2 2026-04-24 16:02 1.0M
20260424T12Z_MSC_GDPS_WindV_AGL-40m_LatLon0.15_PT033H.grib2 2026-04-24 16:02 1.0M
20260424T12Z_MSC_GDPS_WindV_AGL-80m_LatLon0.15_PT033H.grib2 2026-04-24 16:02 1.0M
20260424T12Z_MSC_GDPS_WindV_IsbL-0001_LatLon0.15_PT033H.grib2 2026-04-24 16:02 708K
20260424T12Z_MSC_GDPS_WindV_IsbL-0005_LatLon0.15_PT033H.grib2 2026-04-24 16:02 788K
20260424T12Z_MSC_GDPS_WindV_IsbL-0010_LatLon0.15_PT033H.grib2 2026-04-24 16:02 891K
20260424T12Z_MSC_GDPS_WindV_IsbL-0020_LatLon0.15_PT033H.grib2 2026-04-24 16:02 855K
20260424T12Z_MSC_GDPS_WindV_IsbL-0030_LatLon0.15_PT033H.grib2 2026-04-24 16:02 856K
20260424T12Z_MSC_GDPS_WindV_IsbL-0050_LatLon0.15_PT033H.grib2 2026-04-24 16:02 912K
20260424T12Z_MSC_GDPS_WindV_IsbL-0100_LatLon0.15_PT033H.grib2 2026-04-24 16:02 1.1M
20260424T12Z_MSC_GDPS_WindV_IsbL-0150_LatLon0.15_PT033H.grib2 2026-04-24 16:02 1.0M
20260424T12Z_MSC_GDPS_WindV_IsbL-0175_LatLon0.15_PT033H.grib2 2026-04-24 16:02 1.0M
20260424T12Z_MSC_GDPS_WindV_IsbL-0200_LatLon0.15_PT033H.grib2 2026-04-24 16:02 1.0M
20260424T12Z_MSC_GDPS_WindV_IsbL-0225_LatLon0.15_PT033H.grib2 2026-04-24 16:02 850K
20260424T12Z_MSC_GDPS_WindV_IsbL-0250_LatLon0.15_PT033H.grib2 2026-04-24 16:02 853K
20260424T12Z_MSC_GDPS_WindV_IsbL-0275_LatLon0.15_PT033H.grib2 2026-04-24 16:02 882K
20260424T12Z_MSC_GDPS_WindV_IsbL-0300_LatLon0.15_PT033H.grib2 2026-04-24 16:02 932K
20260424T12Z_MSC_GDPS_WindV_IsbL-0350_LatLon0.15_PT033H.grib2 2026-04-24 16:02 942K
20260424T12Z_MSC_GDPS_WindV_IsbL-0400_LatLon0.15_PT033H.grib2 2026-04-24 16:02 885K
20260424T12Z_MSC_GDPS_WindV_IsbL-0450_LatLon0.15_PT033H.grib2 2026-04-24 16:02 886K
20260424T12Z_MSC_GDPS_WindV_IsbL-0500_LatLon0.15_PT033H.grib2 2026-04-24 16:02 1.1M
20260424T12Z_MSC_GDPS_WindV_IsbL-0550_LatLon0.15_PT033H.grib2 2026-04-24 16:02 1.1M
20260424T12Z_MSC_GDPS_WindV_IsbL-0600_LatLon0.15_PT033H.grib2 2026-04-24 16:02 1.1M
20260424T12Z_MSC_GDPS_WindV_IsbL-0650_LatLon0.15_PT033H.grib2 2026-04-24 16:02 1.2M
20260424T12Z_MSC_GDPS_WindV_IsbL-0700_LatLon0.15_PT033H.grib2 2026-04-24 16:02 1.2M
20260424T12Z_MSC_GDPS_WindV_IsbL-0750_LatLon0.15_PT033H.grib2 2026-04-24 16:02 1.2M
20260424T12Z_MSC_GDPS_WindV_IsbL-0800_LatLon0.15_PT033H.grib2 2026-04-24 16:02 1.3M
20260424T12Z_MSC_GDPS_WindV_IsbL-0850_LatLon0.15_PT033H.grib2 2026-04-24 16:02 1.4M
20260424T12Z_MSC_GDPS_WindV_IsbL-0875_LatLon0.15_PT033H.grib2 2026-04-24 16:02 1.4M
20260424T12Z_MSC_GDPS_WindV_IsbL-0900_LatLon0.15_PT033H.grib2 2026-04-24 16:02 1.5M
20260424T12Z_MSC_GDPS_WindV_IsbL-0925_LatLon0.15_PT033H.grib2 2026-04-24 16:02 1.4M
20260424T12Z_MSC_GDPS_WindV_IsbL-0950_LatLon0.15_PT033H.grib2 2026-04-24 16:02 1.4M
20260424T12Z_MSC_GDPS_WindV_IsbL-0970_LatLon0.15_PT033H.grib2 2026-04-24 16:02 1.4M
20260424T12Z_MSC_GDPS_WindV_IsbL-0985_LatLon0.15_PT033H.grib2 2026-04-24 16:02 1.4M
20260424T12Z_MSC_GDPS_WindV_IsbL-1000_LatLon0.15_PT033H.grib2 2026-04-24 16:02 1.4M
20260424T12Z_MSC_GDPS_WindV_IsbL-1015_LatLon0.15_PT033H.grib2 2026-04-24 16:02 1.4M